User: anonymous   Login
Location: Unspecified
(0.0000°N, 0.0000°E)
Time: 06:15:34
(UTC+00:00)
Language:

YUBILEINY - Orbit

View from above orbital plane
View from above orbital plane
View from above satellite
View from above satellite

Ground track
Ground track

The orbit data is extracted from the following two-line orbital elements,

1 32953U 08025A   17119.91197952 +.00000015 +00000-0 +39023-4 0  9996
2 32953 082.5008 269.6693 0019115 033.8360 326.3935 12.43076188405424
Epoch (UTC): 29 April 2017 21:53:15
Eccentricity: 0.0019115
inclination: 82.5008°
perigee height: 1478 km
apogee height: 1508 km
right ascension of ascending node: 269.6693°
argument of perigee: 33.8360°
revolutions per day: 12.43076188
mean anomaly at epoch: 326.3935°
orbit number at epoch: 40542

The dashed part of the orbit path shows where the satellite is in the earth's shadow,  

DLR